Location: Betpouey
(42.8833°N, 0.0333°E)
Time: 21:56:57
(UTC+00:00)

Cosmos 1461 - Pass Details

Date: 01 December 2020
Orbit: 500 x 664 km, 65.0° (Epoch: 18 January)

Event Time Altitude Azimuth Distance (km) Brightness Sun altitude
Rises 17:56:03 0° 180° (S) 2,862 6.7 -15.9°
Reaches altitude 10° 17:58:34 10° 167° (SSE) 1,989 5.7 -16.4°
Maximum altitude 18:02:17 26° 112° (ESE) 1,275 4.2 -17.1°
Enters shadow 18:02:19 26° 111° (ESE) 1,275 4.2 -17.1°
